Pacific - South Coast: Past 24 Hour Conditions

 

Discovery Island

08:00 AM PDT 22 July 2014
This table is a summary of hourly weather conditions for the past 24 hours.
Date / Time
(PDT)
Wind(knots) Conditions Visibility(km) Pressure(kPa) Air tempC) Relative humidity(%) Dew pointC)
22 July 2014
8:00 WSW 6 N/A N/A 101.6 12 89 10
7:00 WSW 6 N/A N/A 101.6 12 90 10
6:00 WSW 6 N/A N/A 101.6 12 90 10
5:00 SE 2 N/A N/A 101.6 11 92 10
4:00 N 1 N/A N/A 101.5 12 85 10
3:00 NW 3 N/A N/A 101.5 12 88 10
2:00 WSW 6 N/A N/A 101.5 11 92 10
1:00 WSW 8 N/A N/A 101.5 12 88 10
0:00 WSW 8 N/A N/A 101.5 12 91 10
21 July 2014
23:00 SW 6 N/A N/A 101.5 12 90 10
22:00 WSW 5 N/A N/A 101.4 13 79 10
21:00 WSW 5 N/A N/A 101.4 12 89 10
20:00 WSW 7 N/A N/A 101.4 13 87 10
19:00 SW 6 N/A N/A 101.4 13 84 11
18:00 WSW 6 N/A N/A 101.4 15 79 11
17:00 SW 5 N/A N/A 101.5 15 82 11
16:00 SW 7 N/A N/A 101.5 15 74 11
15:00 SW 7 N/A N/A 101.6 15 73 10
14:00 SSW 5 N/A N/A 101.6 14 80 11
13:00 SSE 5 N/A N/A 101.6 13 81 10
12:00 SSW 4 N/A N/A 101.6 14 79 10
11:00 SSE 6 N/A N/A 101.6 12 88 10
10:00 SW 5 N/A N/A 101.6 13 85 11
9:00 SW 6 N/A N/A 101.6 13 85 11
8:00 SW 9 N/A N/A 101.6 13 88 11
 
Map of Pacific - South Coast marine weather areas Tsawwassen Ferry Terminal South Nomad - 46036 Sentry Shoal - 46131 South Brooks - 46132 Halibut Bank - 46146 South Moresby - 46147 South Hecate Strait - 46185 West Sea Otter - 46204 La Perouse Bank - 46206 East Dellwood - 46207 Discovery Island Esquimalt Harbour Kelp Reefs Malahat Race Rocks Lightstation Saturna Island Sheringham Point University of Victoria Victoria Gonzales Victoria Int'l Airport Ballenas Islands Campbell River Airport Comox Airport Entrance Island Fanny Island Nanaimo Airport Port Hardy Airport Sisters Islets Estevan Point Sartine Island Solander Island Tofino Airport Grief Point Powell River Airport Sechelt Cape St.James Bella Bella Airport Bella Coola Airport Cathedral Point Herbert Island Point Atkinson Sand Heads Lightstation Vancouver Harbour Vancouver Int'l Airport West Vancouver Port Alberni Howe Sound - Pam Rocks Squamish Airport